Time,TemperatureF,DewpointF,PressureIn,WindDirection,WindDirectionDegrees,WindSpeedMPH,WindSpeedGustMPH,Humidity,HourlyPrecipIn,Conditions,Clouds,dailyrainin,SoftwareType,DateUTC
2013-07-09 00:02:00,80.0,71.0,30.01,SSE,152,0.0,2.0,74,0.00,,,0.00,,2013-07-09 05:02:00,
2013-07-09 00:11:00,80.0,71.0,30.01,SSE,147,0.0,2.0,75,0.00,,,0.00,,2013-07-09 05:11:00,
2013-07-09 00:22:00,80.0,71.0,30.01,SSE,147,0.0,2.0,75,0.00,,,0.00,,2013-07-09 05:22:00,
2013-07-09 00:33:00,79.0,71.0,30.01,SSE,147,0.0,1.0,77,0.00,,,0.00,,2013-07-09 05:33:00,
2013-07-09 00:42:00,78.0,71.0,30.01,SSE,147,0.0,0.0,79,0.00,,,0.00,,2013-07-09 05:42:00,
2013-07-09 00:52:00,78.0,71.0,30.01,SSE,147,0.0,0.0,79,0.00,,,0.00,,2013-07-09 05:52:00,
2013-07-09 01:01:00,77.0,70.0,30.01,SE,146,0.0,0.0,80,0.00,,,0.00,,2013-07-09 06:01:00,
2013-07-09 01:11:00,77.0,71.0,30.01,SSE,147,0.0,0.0,82,0.00,,,0.00,,2013-07-09 06:11:00,
2013-07-09 01:22:00,77.0,71.0,30.01,SSE,147,0.0,0.0,82,0.00,,,0.00,,2013-07-09 06:22:00,
2013-07-09 01:33:00,76.0,71.0,30.01,SSE,147,0.0,0.0,84,0.00,,,0.00,,2013-07-09 06:33:00,
2013-07-09 01:43:00,75.0,70.0,30.01,SE,146,0.0,0.0,85,0.00,,,0.00,,2013-07-09 06:43:00,
2013-07-09 01:53:00,75.0,70.0,30.01,SE,146,0.0,0.0,85,0.00,,,0.00,,2013-07-09 06:53:00,
2013-07-09 02:02:00,75.0,71.0,30.01,SE,146,0.0,0.0,86,0.00,,,0.00,,2013-07-09 07:02:00,
2013-07-09 02:12:00,74.0,70.0,30.01,SE,146,0.0,0.0,88,0.00,,,0.00,,2013-07-09 07:12:00,
2013-07-09 02:22:00,74.0,70.0,30.01,SE,146,0.0,0.0,88,0.00,,,0.00,,2013-07-09 07:22:00,
2013-07-09 02:34:00,74.0,71.0,30.01,SE,146,0.0,0.0,89,0.00,,,0.00,,2013-07-09 07:34:00,
2013-07-09 02:43:00,73.0,70.0,30.01,SE,146,0.0,0.0,90,0.00,,,0.00,,2013-07-09 07:43:00,
2013-07-09 02:53:00,73.0,70.0,30.01,SE,146,0.0,0.0,90,0.00,,,0.00,,2013-07-09 07:53:00,
2013-07-09 03:01:00,73.0,70.0,30.01,SE,146,0.0,0.0,91,0.00,,,0.00,,2013-07-09 08:01:00,
2013-07-09 03:11:00,73.0,70.0,30.01,SE,146,0.0,0.0,91,0.00,,,0.00,,2013-07-09 08:11:00,
2013-07-09 03:22:00,73.0,70.0,30.01,SE,146,0.0,0.0,91,0.00,,,0.00,,2013-07-09 08:22:00,
2013-07-09 03:33:00,73.0,70.0,30.01,SE,146,0.0,0.0,91,0.00,,,0.00,,2013-07-09 08:33:00,
2013-07-09 03:43:00,72.0,70.0,30.01,SE,146,0.0,1.0,92,0.00,,,0.00,,2013-07-09 08:43:00,
2013-07-09 03:52:00,72.0,70.0,30.01,SE,146,0.0,1.0,92,0.00,,,0.00,,2013-07-09 08:52:00,
2013-07-09 04:02:00,72.0,70.0,30.01,SE,146,0.0,0.0,93,0.00,,,0.00,,2013-07-09 09:02:00,
2013-07-09 04:12:00,72.0,70.0,30.01,SE,146,0.0,0.0,93,0.00,,,0.00,,2013-07-09 09:12:00,
2013-07-09 04:22:00,72.0,70.0,30.01,SE,146,0.0,0.0,93,0.00,,,0.00,,2013-07-09 09:22:00,
2013-07-09 04:34:00,72.0,70.0,30.01,SE,146,0.0,0.0,94,0.00,,,0.00,,2013-07-09 09:34:00,
2013-07-09 04:42:00,72.0,70.0,30.01,SE,146,0.0,0.0,93,0.00,,,0.00,,2013-07-09 09:42:00,
2013-07-09 04:52:00,72.0,70.0,30.01,SE,146,0.0,0.0,93,0.00,,,0.00,,2013-07-09 09:52:00,
2013-07-09 05:01:00,71.0,69.0,30.02,SE,146,0.0,0.0,94,0.00,,,0.00,,2013-07-09 10:01:00,
2013-07-09 05:22:00,71.0,69.0,30.01,SE,146,0.0,0.0,94,0.00,,,0.00,,2013-07-09 10:22:00,
2013-07-09 05:33:00,71.0,69.0,30.01,SSE,147,0.0,0.0,94,0.00,,,0.00,,2013-07-09 10:33:00,
2013-07-09 05:42:00,71.0,69.0,30.01,SE,146,0.0,1.0,95,0.00,,,0.00,,2013-07-09 10:42:00,
2013-07-09 05:52:00,71.0,69.0,30.01,SE,146,0.0,1.0,95,0.00,,,0.00,,2013-07-09 10:52:00,
2013-07-09 06:01:00,71.0,69.0,30.02,SE,146,0.0,0.0,95,0.00,,,0.00,,2013-07-09 11:01:00,
2013-07-09 06:11:00,70.0,68.0,30.02,SE,146,0.0,0.0,95,0.00,,,0.00,,2013-07-09 11:11:00,
2013-07-09 06:22:00,70.0,68.0,30.02,SE,146,0.0,0.0,95,0.00,,,0.00,,2013-07-09 11:22:00,
2013-07-09 06:34:00,70.0,69.0,30.02,SE,146,0.0,0.0,96,0.00,,,0.00,,2013-07-09 11:34:00,
2013-07-09 06:42:00,70.0,69.0,30.02,SE,146,0.0,0.0,96,0.00,,,0.00,,2013-07-09 11:42:00,
2013-07-09 06:53:00,70.0,69.0,30.02,SE,146,0.0,0.0,96,0.00,,,0.00,,2013-07-09 11:53:00,
2013-07-09 07:02:00,71.0,70.0,30.03,SE,146,0.0,0.0,96,0.00,,,0.00,,2013-07-09 12:02:00,
2013-07-09 07:11:00,72.0,70.0,30.03,SE,146,0.0,0.0,94,0.00,,,0.00,,2013-07-09 12:11:00,
2013-07-09 07:22:00,72.0,70.0,30.03,SE,146,0.0,0.0,94,0.00,,,0.00,,2013-07-09 12:22:00,
2013-07-09 07:33:00,73.0,71.0,30.03,SE,146,0.0,0.0,93,0.00,,,0.00,,2013-07-09 12:33:00,
2013-07-09 07:43:00,74.0,71.0,30.03,SE,146,0.0,0.0,91,0.00,,,0.00,,2013-07-09 12:43:00,
2013-07-09 07:52:00,74.0,71.0,30.03,SE,146,0.0,0.0,91,0.00,,,0.00,,2013-07-09 12:52:00,
2013-07-09 08:01:00,77.0,73.0,30.03,SSE,158,0.0,1.0,87,0.00,,,0.00,,2013-07-09 13:01:00,
2013-07-09 08:11:00,79.0,72.0,30.04,WSW,240,1.0,3.0,80,0.00,,,0.00,,2013-07-09 13:11:00,
2013-07-09 08:22:00,79.0,72.0,30.04,WSW,240,1.0,3.0,80,0.00,,,0.00,,2013-07-09 13:22:00,
2013-07-09 08:33:00,80.0,73.0,30.04,SW,224,0.0,2.0,80,0.00,,,0.00,,2013-07-09 13:33:00,
2013-07-09 08:43:00,81.0,73.0,30.04,SSE,155,0.0,4.0,78,0.00,,,0.00,,2013-07-09 13:43:00,
2013-07-09 08:53:00,81.0,73.0,30.04,SSE,155,0.0,4.0,78,0.00,,,0.00,,2013-07-09 13:53:00,
2013-07-09 09:01:00,82.0,74.0,30.04,SW,217,2.0,5.0,76,0.00,,,0.00,,2013-07-09 14:01:00,
2013-07-09 09:11:00,83.0,74.0,30.04,SSE,166,2.0,5.0,75,0.00,,,0.00,,2013-07-09 14:11:00,
2013-07-09 09:22:00,83.0,74.0,30.04,SSE,166,2.0,5.0,75,0.00,,,0.00,,2013-07-09 14:22:00,
2013-07-09 09:34:00,84.0,74.0,30.04,SW,234,3.0,7.0,71,0.00,,,0.00,,2013-07-09 14:34:00,
2013-07-09 09:43:00,85.0,74.0,30.03,SSW,193,4.0,8.0,69,0.00,,,0.00,,2013-07-09 14:43:00,
2013-07-09 09:53:00,85.0,74.0,30.03,SSW,193,4.0,8.0,69,0.00,,,0.00,,2013-07-09 14:53:00,
2013-07-09 10:02:00,86.0,74.0,30.03,SW,234,4.0,9.0,67,0.00,,,0.00,,2013-07-09 15:02:00,
2013-07-09 10:12:00,86.0,74.0,30.03,SW,215,4.0,9.0,67,0.00,,,0.00,,2013-07-09 15:12:00,
2013-07-09 10:22:00,86.0,74.0,30.03,SW,215,4.0,9.0,67,0.00,,,0.00,,2013-07-09 15:22:00,
2013-07-09 10:33:00,87.0,74.0,30.03,SSW,211,3.0,10.0,66,0.00,,,0.00,,2013-07-09 15:33:00,
2013-07-09 10:43:00,88.0,74.0,30.03,South,188,1.0,8.0,64,0.00,,,0.00,,2013-07-09 15:43:00,
2013-07-09 10:52:00,88.0,74.0,30.03,South,188,1.0,8.0,64,0.00,,,0.00,,2013-07-09 15:52:00,
2013-07-09 11:02:00,89.0,74.0,30.03,South,179,5.0,8.0,62,0.00,,,0.00,,2013-07-09 16:02:00,
2013-07-09 11:11:00,89.0,74.0,30.03,South,179,5.0,8.0,62,0.00,,,0.00,,2013-07-09 16:11:00,
2013-07-09 11:22:00,90.0,74.0,30.03,WSW,239,2.0,9.0,60,0.00,,,0.00,,2013-07-09 16:22:00,
2013-07-09 11:34:00,90.0,73.0,30.02,SSW,203,1.0,9.0,57,0.00,,,0.00,,2013-07-09 16:34:00,
2013-07-09 11:43:00,90.0,73.0,30.02,SSW,203,1.0,9.0,57,0.00,,,0.00,,2013-07-09 16:43:00,
2013-07-09 11:53:00,91.0,73.0,30.03,West,274,3.0,10.0,55,0.00,,,0.00,,2013-07-09 16:53:00,
2013-07-09 12:02:00,91.0,71.0,30.03,SW,230,3.0,10.0,53,0.00,,,0.00,,2013-07-09 17:02:00,
2013-07-09 12:11:00,91.0,71.0,30.03,SW,230,3.0,10.0,53,0.00,,,0.00,,2013-07-09 17:11:00,
2013-07-09 12:22:00,91.0,70.0,30.02,SW,228,4.0,9.0,51,0.00,,,0.00,,2013-07-09 17:22:00,
2013-07-09 12:35:00,92.0,71.0,30.01,WSW,253,5.0,12.0,51,0.00,,,0.00,,2013-07-09 17:35:00,
2013-07-09 12:45:00,92.0,71.0,30.01,WSW,253,5.0,12.0,51,0.00,,,0.00,,2013-07-09 17:45:00,
2013-07-09 12:53:00,93.0,70.0,30.01,South,180,6.0,13.0,48,0.00,,,0.00,,2013-07-09 17:53:00,
2013-07-09 13:02:00,92.0,70.0,30.01,SW,226,4.0,12.0,49,0.00,,,0.00,,2013-07-09 18:02:00,
2013-07-09 13:11:00,92.0,70.0,30.01,SW,226,4.0,12.0,49,0.00,,,0.00,,2013-07-09 18:11:00,
2013-07-09 13:22:00,93.0,70.0,30.00,SE,146,2.0,9.0,48,0.00,,,0.00,,2013-07-09 18:22:00,
2013-07-09 13:43:00,94.0,71.0,30.00,WSW,238,4.0,11.0,47,0.00,,,0.00,,2013-07-09 18:43:00,
2013-07-09 13:52:00,94.0,71.0,29.99,WSW,255,3.0,10.0,47,0.00,,,0.00,,2013-07-09 18:52:00,
2013-07-09 14:01:00,94.0,71.0,29.98,South,186,4.0,9.0,48,0.00,,,0.00,,2013-07-09 19:01:00,
2013-07-09 14:11:00,94.0,71.0,29.98,South,186,4.0,9.0,48,0.00,,,0.00,,2013-07-09 19:11:00,
2013-07-09 14:22:00,95.0,71.0,29.98,SW,221,6.0,12.0,46,0.00,,,0.00,,2013-07-09 19:22:00,
2013-07-09 14:33:00,95.0,72.0,29.97,SE,134,2.0,7.0,47,0.00,,,0.00,,2013-07-09 19:33:00,
2013-07-09 14:42:00,95.0,72.0,29.97,SE,134,2.0,7.0,47,0.00,,,0.00,,2013-07-09 19:42:00,
2013-07-09 14:52:00,95.0,71.0,29.97,SW,215,3.0,10.0,46,0.00,,,0.00,,2013-07-09 19:52:00,
2013-07-09 15:01:00,95.0,70.0,29.96,South,170,3.0,10.0,44,0.00,,,0.00,,2013-07-09 20:01:00,
2013-07-09 15:11:00,95.0,70.0,29.96,South,170,3.0,10.0,44,0.00,,,0.00,,2013-07-09 20:11:00,
2013-07-09 15:22:00,95.0,70.0,29.96,WSW,242,3.0,11.0,45,0.00,,,0.00,,2013-07-09 20:22:00,
2013-07-09 15:32:00,96.0,71.0,29.96,SW,219,4.0,9.0,45,0.00,,,0.00,,2013-07-09 20:32:00,
2013-07-09 15:43:00,96.0,71.0,29.96,SW,219,4.0,9.0,45,0.00,,,0.00,,2013-07-09 20:43:00,
2013-07-09 15:52:00,95.0,70.0,29.96,WSW,255,4.0,12.0,44,0.00,,,0.00,,2013-07-09 20:52:00,
2013-07-09 16:01:00,96.0,71.0,29.95,SSW,200,5.0,10.0,44,0.00,,,0.00,,2013-07-09 21:01:00,
2013-07-09 16:11:00,96.0,71.0,29.95,SSW,200,5.0,10.0,44,0.00,,,0.00,,2013-07-09 21:11:00,
2013-07-09 16:22:00,96.0,71.0,29.94,WSW,238,3.0,7.0,44,0.00,,,0.00,,2013-07-09 21:22:00,
2013-07-09 16:32:00,96.0,71.0,29.93,East,101,3.0,13.0,45,0.00,,,0.00,,2013-07-09 21:32:00,
2013-07-09 16:42:00,96.0,71.0,29.93,East,101,3.0,13.0,45,0.00,,,0.00,,2013-07-09 21:42:00,
2013-07-09 16:52:00,96.0,70.0,29.93,West,264,5.0,11.0,43,0.00,,,0.00,,2013-07-09 21:52:00,
2013-07-09 17:01:00,96.0,70.0,29.93,SW,228,5.0,9.0,43,0.00,,,0.00,,2013-07-09 22:01:00,
2013-07-09 17:11:00,96.0,70.0,29.93,SW,228,5.0,9.0,43,0.00,,,0.00,,2013-07-09 22:11:00,
2013-07-09 17:22:00,96.0,71.0,29.93,SSE,156,4.0,9.0,44,0.00,,,0.00,,2013-07-09 22:22:00,
2013-07-09 17:33:00,96.0,71.0,29.92,West,269,5.0,10.0,45,0.00,,,0.00,,2013-07-09 22:33:00,
2013-07-09 17:42:00,96.0,71.0,29.92,West,269,5.0,10.0,45,0.00,,,0.00,,2013-07-09 22:42:00,
2013-07-09 17:53:00,96.0,71.0,29.92,SW,228,2.0,11.0,44,0.00,,,0.00,,2013-07-09 22:53:00,
2013-07-09 18:02:00,96.0,71.0,29.92,SSE,161,3.0,8.0,44,0.00,,,0.00,,2013-07-09 23:02:00,
2013-07-09 18:11:00,96.0,71.0,29.92,SSE,161,3.0,8.0,44,0.00,,,0.00,,2013-07-09 23:11:00,
2013-07-09 18:22:00,96.0,70.0,29.91,South,181,3.0,8.0,43,0.00,,,0.00,,2013-07-09 23:22:00,
2013-07-09 18:33:00,95.0,71.0,29.91,SW,232,1.0,8.0,46,0.00,,,0.00,,2013-07-09 23:33:00,
2013-07-09 18:43:00,95.0,71.0,29.91,SW,232,1.0,8.0,46,0.00,,,0.00,,2013-07-09 23:43:00,
2013-07-09 18:53:00,95.0,70.0,29.91,South,191,2.0,10.0,45,0.00,,,0.00,,2013-07-09 23:53:00,
2013-07-09 19:01:00,95.0,70.0,29.91,WSW,255,4.0,10.0,45,0.00,,,0.00,,2013-07-10 00:01:00,
2013-07-09 19:11:00,95.0,70.0,29.91,WSW,255,4.0,10.0,45,0.00,,,0.00,,2013-07-10 00:11:00,
2013-07-09 19:22:00,94.0,71.0,29.91,SSE,159,2.0,8.0,47,0.00,,,0.00,,2013-07-10 00:22:00,
2013-07-09 19:33:00,94.0,71.0,29.91,SW,221,2.0,6.0,47,0.00,,,0.00,,2013-07-10 00:33:00,
2013-07-09 19:42:00,94.0,71.0,29.91,SW,221,2.0,6.0,47,0.00,,,0.00,,2013-07-10 00:42:00,
2013-07-09 19:52:00,93.0,70.0,29.91,SSW,212,1.0,5.0,48,0.00,,,0.00,,2013-07-10 00:52:00,
2013-07-09 20:01:00,93.0,72.0,29.91,South,175,1.0,5.0,50,0.00,,,0.00,,2013-07-10 01:01:00,
2013-07-09 20:11:00,93.0,72.0,29.91,South,175,1.0,5.0,50,0.00,,,0.00,,2013-07-10 01:11:00,
2013-07-09 20:22:00,91.0,71.0,29.90,WSW,238,1.0,3.0,52,0.00,,,0.00,,2013-07-10 01:22:00,
2013-07-09 20:33:00,90.0,71.0,29.90,SSW,210,1.0,4.0,54,0.00,,,0.00,,2013-07-10 01:33:00,
2013-07-09 20:43:00,90.0,71.0,29.90,SSW,210,1.0,4.0,54,0.00,,,0.00,,2013-07-10 01:43:00,
2013-07-09 20:53:00,88.0,70.0,29.90,SW,236,1.0,3.0,56,0.00,,,0.00,,2013-07-10 01:53:00,
2013-07-09 21:02:00,87.0,70.0,29.91,SW,217,0.0,2.0,58,0.00,,,0.00,,2013-07-10 02:02:00,
2013-07-09 21:11:00,87.0,70.0,29.91,SW,217,0.0,2.0,58,0.00,,,0.00,,2013-07-10 02:11:00,
2013-07-09 21:22:00,87.0,71.0,29.91,SW,217,0.0,3.0,59,0.00,,,0.00,,2013-07-10 02:22:00,
2013-07-09 21:34:00,86.0,70.0,29.91,SSW,197,0.0,2.0,60,0.00,,,0.00,,2013-07-10 02:34:00,
2013-07-09 21:43:00,86.0,70.0,29.91,SSW,197,0.0,2.0,60,0.00,,,0.00,,2013-07-10 02:43:00,
2013-07-09 21:53:00,85.0,70.0,29.91,SSW,197,0.0,0.0,62,0.00,,,0.00,,2013-07-10 02:53:00,
2013-07-09 22:01:00,84.0,70.0,29.91,South,190,0.0,0.0,64,0.00,,,0.00,,2013-07-10 03:01:00,
2013-07-09 22:12:00,84.0,70.0,29.91,South,190,0.0,0.0,64,0.00,,,0.00,,2013-07-10 03:12:00,
2013-07-09 22:22:00,83.0,70.0,29.92,South,190,0.0,0.0,66,0.00,,,0.00,,2013-07-10 03:22:00,
2013-07-09 22:32:00,83.0,71.0,29.93,South,170,0.0,1.0,67,0.00,,,0.00,,2013-07-10 03:32:00,
2013-07-09 22:43:00,83.0,71.0,29.93,South,170,0.0,1.0,67,0.00,,,0.00,,2013-07-10 03:43:00,
2013-07-09 22:52:00,82.0,70.0,29.93,South,170,0.0,0.0,68,0.00,,,0.00,,2013-07-10 03:52:00,
2013-07-09 23:01:00,81.0,71.0,29.93,South,170,0.0,0.0,71,0.00,,,0.00,,2013-07-10 04:01:00,
2013-07-09 23:11:00,81.0,71.0,29.93,South,170,0.0,0.0,71,0.00,,,0.00,,2013-07-10 04:11:00,
2013-07-09 23:22:00,80.0,71.0,29.93,South,170,0.0,0.0,73,0.00,,,0.00,,2013-07-10 04:22:00,
2013-07-09 23:32:00,79.0,71.0,29.93,South,170,0.0,0.0,76,0.00,,,0.00,,2013-07-10 04:32:00,
2013-07-09 23:43:00,79.0,71.0,29.93,South,170,0.0,0.0,76,0.00,,,0.00,,2013-07-10 04:43:00,
2013-07-09 23:52:00,79.0,71.0,29.93,South,170,0.0,0.0,77,0.00,,,0.00,,2013-07-10 04:52:00,